Regional Weather Roundup
Issued by NWS Boston, MA

Current Version | Previous Version | Text Only | Print | Product List | Glossary Off
Versions: 1 2 3 4 5 6 7 8 9 10 11 12 13 14 15 16 17 18 19 20 21 22 23 24 25 26 27 28 29 30 31 32 33 34 35 36 37 38 39 40 41 42 43 44 45 46 47 48 49 50
521 ASUS41 KBOX 100610 RWRBOX REGIONAL WEATHER ROUNDUP NATIONAL WEATHER SERVICE TAUNTON MA 100 AM EST SUN DEC 10 2017 NOTE: "FAIR" INDICATES FEW OR NO CLOUDS BELOW 12,000 FEET WITH NO SIGNIFICANT WEATHER AND/OR OBSTRUCTIONS TO VISIBILITY. MAZALL-100700- EASTERN MASSACHUSETTS CITY SKY/WX TMP DP RH WIND PRES REMARKS BOSTON LGT SNOW 31 29 92 NW14G21 29.63S FOG WCI 21 6HR MIN TEMP: 31; 6HR MAX TEMP: 32; 6HR PCP: 0.19; BEVERLY LGT SNOW 31 28 89 NW13 29.61R FOG WCI 21 LAWRENCE LGT SNOW 32 28 86 NW6 29.65R FOG WCI 26 BEDFORD FLURRIES 30 28 92 NW8 29.63R WCI 22 BLUE HILL N/A 29 27 92 NW10G20 29.59R WCI 20 NORWOOD LGT SNOW 32 30 92 NW7 29.63R FOG WCI 26 MARSHFIELD MIX PCPN 34 34 100 NW9G17 29.59R WCI 26 PLYMOUTH CLOUDY 34 32 92 NW12 29.58S WCI 25 TAUNTON LGT SNOW 32 30 92 NW7 29.61S FOG WCI 26 NEW BEDFORD FLURRIES 32 32 100 NW8 29.59F WCI 25 $$ MAZALL-100700- CAPE COD AND THE ISLANDS CITY SKY/WX TMP DP RH WIND PRES REMARKS FALMOUTH CLOUDY 36 36 100 NW7 29.57S WCI 30 HYANNIS LGT RAIN 40 37 89 N13G23 29.54F CHATHAM CLOUDY 39 39 100 VRB5 29.55F PROVINCETOWN LGT RAIN 38 36 92 N17 29.55F WCI 28 NANTUCKET CLOUDY 40 40 100 N17G26 29.54S WCI 31 MARTHAS VNYRD CLOUDY N/A N/A N/A N13 29.56F $$ MAZALL-100700- CENTRAL AND WESTERN MASSACHUSETTS CITY SKY/WX TMP DP RH WIND PRES REMARKS WORCESTER FLURRIES 27 24 89 NW8 29.59F WCI 19 6HR MIN TEMP: 27; 6HR MAX TEMP: 29; 6HR PCP: 0.15; FITCHBURG FLURRIES 32 29 88 NW6 29.63F WCI 26 ORANGE CLOUDY 27 26 96 CALM 29.64F SPRINGFIELD CLOUDY 29 26 88 CALM 29.64F WESTFIELD FLURRIES 29 28 96 CALM 29.65F NORTH ADAMS LGT SNOW 26 24 92 W6 29.66F FOG WCI 19 PITTSFIELD CLOUDY 25 22 88 W6 29.62F FOG WCI 18 $$ RIZALL-100700- RHODE ISLAND CITY SKY/WX TMP DP RH WIND PRES REMARKS PROVIDENCE CLOUDY 32 30 92 NW10 29.63S WCI 24 6HR MIN TEMP: 32; 6HR MAX TEMP: 33; 6HR PCP: 0.08; NEWPORT FLURRIES 32 31 96 NW14 29.61R WCI 22 BLOCK ISLAND LGT RAIN 34 32 92 NW10G18 29.63R WCI 26 SMITHFIELD LGT SNOW 29 28 96 NW9 29.62R FOG WCI 20 WESTERLY LGT SNOW 33 31 92 NW8 29.65R FOG WCI 26 $$ CTZALL-100700- CONNECTICUT CITY SKY/WX TMP DP RH WIND PRES REMARKS BRADLEY INTL LGT SNOW 30 28 92 CALM 29.66F 6HR MIN TEMP: 29; 6HR MAX TEMP: 30; 6HR PCP: 0.07; HARTFORD CLOUDY 31 29 92 CALM 29.68F BRIDGEPORT CLOUDY 32 28 85 NW7 29.68F WCI 26 DANBURY CLOUDY 29 25 85 W5 29.69S WCI 24 GROTON LGT SNOW 32 29 88 NW10 29.65R FOG WCI 24 NEW HAVEN CLOUDY 32 29 88 N6 29.67F WCI 26 CHESTER CLOUDY 30 28 93 N8 29.65S WCI 23 MERIDEN CLOUDY 30 28 92 NW3 29.67F WILLIMANTIC CLOUDY 32 28 85 CALM 29.66F OXFORD CLOUDY 28 26 92 W3 29.65F $$ MEZ002-015-021-024-NHZ003-005-008-011-012-014-VTZ005-008-100700- NORTHERN NEW ENGLAND CITY SKY/WX TMP DP RH WIND PRES REMARKS PORTLAND ME LGT SNOW 30 27 88 NW8 29.61R FOG WCI 22 6HR MIN TEMP: 29; 6HR MAX TEMP: 30; 6HR PCP: 0.24; BANGOR ME LGT SNOW 29 26 89 N14 29.57F FOG WCI 18 CONCORD NH LGT SNOW 29 26 89 NW3 29.62F FOG MANCHESTER NH LGT SNOW 30 28 92 N6 29.62F FOG WCI 24 NASHUA NH LGT SNOW 29 29 100 NW6 29.64F FOG WCI 23 PORTSMOUTH NH LGT SNOW 29 27 91 NW10 29.60F FOG WCI 20 JAFFREY NH FLURRIES 28 27 96 CALM 29.60F KEENE NH MIX PCPN 27 26 96 CALM 29.65F BURLINGTON VT CLOUDY 29 24 82 S3 29.67F MT. WASHINGTON SNOW 12 12 100 NW22 N/A VSB 1/8 WCI -7 $$ NYZ052-076-100700- EASTERN NEW YORK CITY SKY/WX TMP DP RH WIND PRES REMARKS ALBANY FLURRIES 25 23 92 NW3 29.71F 6HR MIN TEMP: 25; 6HR MAX TEMP: 28; 6HR PCP: 0.06; NEW YORK CITY CLOUDY 33 29 85 NW7 29.72S WCI 27 6HR MIN TEMP: 33; 6HR MAX TEMP: 33; 6HR PCP: 0.03; $$ ANZALL-100700- MARINE OBSERVATIONS STATION/POSITION TIME TEMP WIND PRES VSBY WAVE AIR SEA DIR/SP/G HT/PER (UTC) (F) (DEG/KT/KT) (MB) (MI) (FT/S) BOSTON BUOY 0550 35 49 330/ 17/ 23 1000.7F 7/ 7 BUZZARDS BAY 0500 34 350/ 18/ 20 1002.5R NANTUCKET SOUND 0550 40 45 350/ 19/ 23 1000.2F 3/ 4 MASS BAY-STELLWA 0504 37 47 360/ 19/ 23 1001.9F 8/ 6 ISLE OF SHOALS 0500 31 340/ 18/ 21 1002.3F S OF BLOCK IS 0543 54 N/A 7/11 $$ ......................KEY......................... SKY/WX - SKY CONDITION/PRESENT WEATHER TMP - TEMPERATURE IN FAHRENHEIT DWPT - DEWPOINT IN FAHRENHEIT RH - RELATIVE HUMIDITY IN PERCENT WIND - DIRECTION AND SPEED IN MPH PRES - MEAN SEA LEVEL PRESSURE IN INCHES OF HG WCI - WIND CHILL INDEX VSB - VISIBILITY IN MILES HX - HEAT INDEX TC - TEMPERATURE IN CELSIUS VRB - VARIABLE WIND DIRECTION N/A - NOT AVAILABLE

USA.gov is the U.S. government's official web portal to all federal, state and local government web resources and services.